Location: Unspecified
(47.4992°N, 121.7766°W)
Time: 08:54:45
(UTC-08:00)

ISS - Visible Passes

Search period start: 27 January 2021 00:00
Search period end: 06 February 2021 00:00
Orbit: 418 x 421 km, 51.6° (Epoch: 28 January)

Date Brightness Start Highest point End Pass type
(mag) Time Alt. Az. Time Alt. Az. Time Alt. Az.
27 Jan -2.9 18:19:21 10° WNW 18:22:33 39° N 18:24:05 24° NE visible
27 Jan -0.7 19:56:25 10° WNW 19:57:04 15° WNW 19:57:04 15° WNW visible
28 Jan -3.0 17:31:52 10° W 17:35:08 42° N 17:38:23 10° ENE visible
28 Jan -2.8 19:09:03 10° WNW 19:11:41 40° NNW 19:11:41 40° NNW visible
29 Jan -3.1 18:21:40 10° WNW 18:24:55 41° N 18:26:20 26° ENE visible
29 Jan -0.7 19:58:32 10° WNW 19:59:19 16° WNW 19:59:19 16° WNW visible
30 Jan -2.9 17:34:13 10° WNW 17:37:26 39° N 17:40:39 10° ENE visible
30 Jan -3.3 19:11:11 10° WNW 19:14:00 57° NW 19:14:00 57° NW visible
31 Jan -3.6 18:23:48 10° WNW 18:27:09 57° NNE 18:28:45 27° E visible
31 Jan -0.8 20:00:45 10° WNW 20:01:44 17° W 20:01:44 17° W visible
01 Feb -3.3 17:36:24 10° WNW 17:39:42 47° NNE 17:42:59 10° E visible
01 Feb -3.2 19:13:16 10° WNW 19:16:34 54° SSW 19:16:34 54° SSW visible
02 Feb -3.7 18:25:51 10° WNW 18:29:14 80° SSW 18:31:30 19° ESE visible
02 Feb -0.6 20:03:31 10° W 20:04:30 14° WSW 20:04:30 14° WSW visible
03 Feb -1.7 19:15:37 10° W 19:18:23 23° SW 19:19:35 19° S visible
04 Feb -2.2 18:27:58 10° WNW 18:31:06 35° SW 18:34:13 10° SSE visible
